TimeCST,TemperatureF,Dew PointF,Humidity,Sea Level PressureIn,VisibilityMPH,Wind Direction,Wind SpeedMPH,Gust SpeedMPH,PrecipitationIn,Events,Conditions,WindDirDegrees,DateUTC
12:53 AM,55.9,54.0,93,29.96,10.0,WSW,3.5,-,0.05,Rain,Light Rain,250,2013-02-19 06:53:00
1:53 AM,55.9,54.0,93,29.97,10.0,WNW,9.2,-,0.00,,Overcast,300,2013-02-19 07:53:00
2:21 AM,55.4,53.6,94,29.99,10.0,NW,10.4,19.6,N/A,,Overcast,320,2013-02-19 08:21:00
2:38 AM,55.4,51.8,88,30.01,10.0,NNW,9.2,18.4,N/A,,Overcast,330,2013-02-19 08:38:00
2:53 AM,55.0,52.0,89,30.00,10.0,NW,9.2,17.3,N/A,,Overcast,320,2013-02-19 08:53:00
3:53 AM,53.1,46.9,80,30.03,10.0,North,15.0,24.2,N/A,,Mostly Cloudy,360,2013-02-19 09:53:00
4:15 AM,50.0,42.8,76,30.07,10.0,North,8.1,-,N/A,,Partly Cloudy,350,2013-02-19 10:15:00
4:53 AM,46.9,39.0,74,30.09,10.0,NNW,4.6,-,N/A,,Clear,340,2013-02-19 10:53:00
5:53 AM,45.0,37.9,76,30.12,10.0,NNW,4.6,-,N/A,,Clear,330,2013-02-19 11:53:00
6:53 AM,44.1,37.0,76,30.16,10.0,Calm,Calm,-,N/A,,Clear,0,2013-02-19 12:53:00
7:53 AM,46.0,37.9,73,30.19,10.0,North,8.1,-,N/A,,Clear,350,2013-02-19 13:53:00
8:53 AM,46.9,37.0,68,30.22,10.0,NNW,8.1,-,N/A,,Clear,340,2013-02-19 14:53:00
9:53 AM,50.0,35.1,57,30.24,10.0,North,8.1,-,N/A,,Clear,350,2013-02-19 15:53:00
12:53 PM,55.9,27.0,33,30.23,10.0,North,9.2,16.1,N/A,,Clear,350,2013-02-19 18:53:00
1:53 PM,55.9,28.0,34,30.22,10.0,North,10.4,18.4,N/A,,Clear,360,2013-02-19 19:53:00
2:53 PM,55.9,28.0,34,30.24,10.0,NNW,8.1,16.1,N/A,,Clear,330,2013-02-19 20:53:00
3:53 PM,55.9,28.0,34,30.23,10.0,NW,9.2,19.6,N/A,,Clear,320,2013-02-19 21:53:00
4:53 PM,55.0,28.0,35,30.22,10.0,North,11.5,-,N/A,,Clear,360,2013-02-19 22:53:00
6:53 PM,48.9,28.0,44,30.23,10.0,North,3.5,-,N/A,,Clear,350,2013-02-20 00:53:00
7:53 PM,46.0,28.9,51,30.24,10.0,Calm,Calm,-,N/A,,Clear,0,2013-02-20 01:53:00
8:53 PM,45.0,28.9,53,30.26,10.0,Calm,Calm,-,N/A,,Clear,0,2013-02-20 02:53:00
9:53 PM,42.1,30.0,62,30.25,10.0,NE,4.6,-,N/A,,Clear,50,2013-02-20 03:53:00
10:53 PM,42.1,28.9,60,30.25,10.0,NNE,3.5,-,N/A,,Clear,30,2013-02-20 04:53:00
11:53 PM,42.1,28.0,58,30.27,10.0,NNE,3.5,-,N/A,,Clear,20,2013-02-20 05:53:00